Regional Weather Roundup
Issued by NWS

Home | Current Version | Previous Version | Text Only | Print | Product List | Glossary Off
Versions: 1 2 3 4 5 6 7 8 9 10 11 12 13 14 15 16 17 18 19 20 21 22 23 24 25 26 27 28 29 30 31 32 33 34 35 36 37 38 39 40 41 42 43 44 45 46 47 48 49 50

304
ASUS43 KBIS 200910
RWRND

NORTH DAKOTA REGIONAL WEATHER ROUNDUP
NATIONAL WEATHER SERVICE BISMARCK ND
300 AM CST TUE FEB 20 2018

NOTE: "FAIR" INDICATES FEW OR NO CLOUDS BELOW 12,000 FEET WITH NO
SIGNIFICANT WEATHER AND/OR OBSTRUCTIONS TO VISIBILITY.


NDZ001>003-009>011-017-201000-
NORTHWEST NORTH DAKOTA

CITY           SKY/WX    TMP DP  RH WIND       PRES   REMARKS
WILLISTON      LGT SNOW   2  -3  80 W10       30.12F WCI -14
MINOT          CLOUDY     2  -2  83 W6        30.11R WCI  -9
MINOT AFB      CLOUDY     4  -1  81 W6        30.11R WCI  -7
$$

NDZ018>021-031>035-040>046-201000-
SOUTHWEST NORTH DAKOTA

CITY           SKY/WX    TMP DP  RH WIND       PRES   REMARKS
BISMARCK       FLURRIES   4  -1  80 NW7       30.14R WCI  -8
DICKINSON      LGT SNOW   1  -4  79 W6        30.04R WCI -10
GARRISON         N/A      1  -2  87 NW8       30.09R WCI -13
HETTINGER ARPT LGT SNOW   0  -5  79 NW9       30.01F WCI -15
$$

NDZ004>008-012>016-024-026-027-054-201000-
NORTHEAST NORTH DAKOTA

CITY           SKY/WX    TMP DP  RH WIND       PRES   REMARKS
GRAND FORKS    LGT SNOW   5   1  83 N14       30.12F FOG     WCI -12
GRND FRKS AFB  MOCLDY     3  -2  78 N13       30.11F BLWGSNOWWCI -14
DEVILS LAKE    FLURRIES   2  -2  83 N10       30.09F WCI -14
$$

NDZ022-023-025-028>030-036>039-047>053-201000-
SOUTHEAST NORTH DAKOTA

CITY           SKY/WX    TMP DP  RH WIND       PRES   REMARKS
FARGO          LGT SNOW   6   2  83 N21       30.04F FOG     WCI -14
JAMESTOWN      CLOUDY     3  -1  83 N14       30.05R WCI -15
$$





USA.gov is the U.S. government's official web portal to all federal, state and local government web resources and services.